Temperature
17 17 17 17 17 17 17 17 17 17 17 17 17 17 17 17 17 17 17 17 17 17 17 17 17 17 17 16 16 16 16 16 16 16 16 16 16 16 16 16 15 15 15
17 17 17 17 17 17 17 17 17 17 17 17 17 17 17 17 17 16 17 17 17 17 17 17 17 16 16 16 16 16 16 16 16 16 16 16 16 16 16 16 15 15 15
17 17 17 17 17 17 17 17 17 17 17 17 17 17 17 17 17 16 16 17 17 17 17 17 17 16 16 16 16 16 16 16 16 16 16 16 16 16 16 15 15 15 15
17 17 17 17 17 17 17 17 17 17 17 17 17 17 17 17 17 17 17 16 16 16 17 17 17 16 16 16 16 16 16 16 16 16 16 16 16 16 16 15 15 15 15
17 17 17 17 17 17 17 17 17 17 17 17 17 17 17 17 17 17 17 17 17 16 16 17 17 17 16 16 16 16 16 16 16 16 16 16 15 15 15 15 15 15 15
17 17 17 17 17 17 17 17 17 17 17 17 17 17 17 17 17 17 17 17 17 17 17 16 16 16 17 17 16 16 16 16 16 16 16 15 15 15 15 15 15 15 15
17 17 17 17 17 17 17 17 17 17 17 17 17 17 17 17 17 17 17 17 17 17 17 16 16 16 16 16 16 16 16 16 16 16 16 15 15 15 15 15 15 15 15
17 17 17 17 17 17 17 17 17 17 17 17 17 17 18 18 17 17 17 17 17 16 16 16 16 16 16 16 16 16 16 16 16 16 16 15 15 15 15 15 15 15 15
17 17 17 17 17 17 17 17 17 17 17 17 17 17 18 18 17 17 17 17 16 16 16 16 16 16 16 16 15 16 16 16 16 15 15 15 15 15 15 15 15 15 15
17 17 17 17 17 17 17 17 17 17 17 17 17 17 17 17 17 17 17 16 16 16 16 16 16 15 15 15 15 15 16 15 15 15 15 15 15 15 15 15 14 14 14
17 17 17 17 17 17 17 17 17 17 17 17 17 17 17 17 17 17 17 16 16 16 16 15 15 15 15 15 15 15 15 15 15 15 15 15 15 15 15 14 14 14 14
17 17 17 17 17 17 17 17 17 17 17 17 17 17 17 17 17 17 16 16 16 16 15 15 15 15 15 15 15 15 15 15 15 15 15 15 14 14 14 14 14 14 14
17 17 17 17 17 17 17 17 17 17 17 17 17 17 17 17 17 17 16 16 16 15 15 15 15 15 14 14 14 14 14 14 14 14 14 14 14 14 14 14 14 14 14
17 17 17 17 17 17 17 17 17 16 16 16 16 16 16 16 16 16 16 16 16 15 15 15 14 14 14 14 14 14 14 14 14 14 14 14 14 13 13 13 13 13 13
17 17 17 17 17 17 17 17 16 16 16 16 16 16 16 16 16 16 16 16 16 15 15 14 14 14 13 13 13 13 13 13 13 13 13 13 13 13 13 13 13 12 12
18 17 17 17 17 17 16 16 16 16 16 16 16 16 16 16 15 15 15 15 15 15 15 14 14 14 13 13 13 13 13 13 13 13 13 13 12 12 12 12 12 12 12
17 17 17 17 17 16 16 16 16 16 16 16 15 15 15 15 15 15 15 15 15 15 15 14 14 13 13 13 12 12 12 12 12 12 12 12 12 12 12 12 12 11 11
17 17 17 17 16 16 16 16 16 15 15 15 15 15 15 15 15 15 15 14 14 14 14 14 13 13 12 12 12 12 12 12 12 12 12 11 11 11 11 11 11 11 11
17 17 17 17 16 16 16 16 16 15 15 15 15 15 15 14 14 14 14 14 14 14 14 13 13 13 12 12 12 12 11 11 11 11 11 11 11 11 11 10 10 10 10
17 17 17 16 16 16 16 15 15 15 15 15 15 14 14 14 14 14 14 14 14 14 13 13 13 12 12 12 12 12 11 11 11 11 11 11 10 10 10 10 10 10 10
17 17 16 16 16 16 15 15 15 15 14 14 14 14 14 14 14 14 14 13 13 13 13 13 13 12 12 12 12 12 11 11 11 11 10 10 10 10 10 10 9 9 9
17 17 16 16 16 15 15 15 15 14 14 14 14 14 14 14 14 13 13 13 13 13 13 13 12 12 12 12 11 11 11 11 11 10 10 10 10 10 9 9 9 9 9
17 16 16 16 15 15 15 15 15 14 14 14 13 13 13 13 13 13 13 13 13 12 12 12 12 12 11 11 11 11 11 11 10 10 10 10 9 9 9 9 9 9 8
16 16 16 15 15 15 15 15 14 14 13 13 13 13 13 13 12 12 12 12 12 12 12 12 11 11 11 11 11 11 11 11 10 10 10 10 10 9 9 9 8 8 8
16 16 15 15 15 15 14 14 14 13 13 13 13 13 12 12 12 12 12 12 12 12 11 11 11 11 11 11 11 11 10 10 10 10 9 9 9 9 9 9 8 8 8
16 15 15 15 14 14 14 14 14 13 13 12 12 12 12 12 12 12 11 11 11 11 11 11 11 11 11 10 10 10 10 10 10 10 9 9 9 9 9 9 8 8 8
Wind_Speed
2 2 2 1 2 3 4 3 2 3 3 3 3 3 2 2 3 3 7 9 8 7 7 7 8 8 8 8 8 8 8 8 8 8 8 8 7 7 7 8 8 8 8
1 1 2 2 2 2 2 2 2 2 2 2 2 2 2 2 3 2 4 8 9 8 7 7 8 8 8 8 8 9 9 9 9 9 9 9 9 9 9 9 8 8 8
1 1 1 2 1 2 2 2 2 2 2 2 2 2 2 1 2 2 2 3 6 9 9 7 7 8 9 9 9 9 10 10 10 10 10 10 10 10 10 10 10 10 10
1 2 1 1 2 2 2 2 2 1 1 1 1 1 1 2 2 3 3 3 3 4 8 9 9 9 9 9 10 10 10 10 10 10 11 11 11 11 11 11 11 11 12
2 2 1 1 2 2 2 3 2 2 2 1 1 2 2 2 2 2 2 3 3 3 4 9 10 9 8 8 9 10 11 10 10 10 11 11 11 11 12 12 12 12 12
2 3 2 2 3 2 2 2 1 2 1 2 2 1 2 1 2 2 2 2 2 3 3 3 7 9 10 8 7 8 9 9 10 10 10 10 11 11 11 11 11 12 12
2 3 2 2 3 2 2 3 2 3 3 2 2 2 2 2 1 1 1 1 1 1 1 2 4 4 7 9 7 7 7 8 9 9 9 10 10 10 10 11 11 11 12
2 3 2 3 2 3 3 3 3 3 3 3 2 2 2 2 2 2 2 1 1 1 1 1 1 2 3 3 5 6 6 7 7 8 8 8 9 9 9 10 10 11 12
2 2 2 3 2 3 3 3 4 5 4 3 4 3 2 1 1 2 2 1 1 1 0 1 1 0 1 1 2 3 4 4 5 6 7 7 8 8 8 8 8 8 8
1 2 2 2 3 3 3 4 4 4 4 4 3 4 4 2 2 2 2 2 2 1 1 1 1 1 1 1 2 4 3 1 2 3 3 4 5 7 7 7 6 6 6
1 1 2 2 2 3 3 4 3 4 4 4 4 3 3 3 5 4 2 2 1 1 1 1 1 2 2 2 3 4 5 3 2 1 1 1 1 2 3 4 5 5 4
1 1 2 2 2 2 2 3 3 4 4 4 5 4 4 3 4 3 3 3 2 0 1 1 1 2 3 4 5 7 6 5 4 4 4 4 4 4 3 2 2 1 1
1 1 1 2 2 2 2 3 3 3 3 4 4 4 4 4 3 3 3 3 2 1 1 1 2 3 4 4 5 8 8 7 7 7 7 7 7 7 7 7 6 5 5
1 1 1 1 2 2 2 2 3 2 2 3 3 3 3 3 3 3 3 3 2 2 1 1 3 4 4 5 7 8 8 9 9 9 9 8 8 8 8 8 7 7 7
1 1 1 1 2 2 2 2 1 2 1 2 2 2 2 2 2 2 3 3 3 2 1 2 2 2 4 5 6 7 8 10 9 9 9 9 9 9 9 9 9 9 8
1 1 1 1 1 1 1 1 1 0 0 1 1 1 2 2 2 2 2 2 3 3 1 1 2 2 3 5 6 7 8 11 10 9 9 8 8 8 9 9 9 9 9
1 1 1 0 1 1 0 0 0 0 0 0 1 0 1 1 1 1 1 1 1 2 2 1 2 3 3 4 5 6 6 6 8 9 9 9 8 9 9 8 8 9 9
1 1 1 1 0 0 0 1 0 0 0 0 0 1 1 0 0 1 0 1 1 2 3 4 3 3 4 5 5 4 5 6 7 10 9 9 8 8 7 7 8 8 8
2 1 1 1 1 1 1 1 1 0 0 0 0 0 1 1 1 0 0 1 2 2 3 4 4 4 4 4 5 4 4 4 5 8 10 9 8 7 7 7 7 7 7
2 2 2 1 1 1 1 1 1 1 1 1 0 1 1 1 1 0 1 1 2 3 4 4 5 4 4 4 3 4 3 3 2 4 6 6 8 7 7 6 6 6 6
3 2 2 2 1 1 1 1 2 2 2 1 1 1 2 4 5 4 2 1 2 2 4 4 4 4 3 3 3 3 3 3 3 2 3 4 5 5 6 7 6 5 5
3 2 2 2 2 2 4 3 1 2 2 2 2 2 3 4 6 7 8 7 5 2 2 3 3 3 3 3 2 3 3 3 2 2 2 2 2 2 3 4 6 5 4
3 3 2 2 2 3 3 2 1 1 2 2 3 2 3 5 4 5 6 6 6 6 4 0 2 1 2 2 3 3 2 1 1 2 2 2 2 1 2 5 7 4 3
3 3 2 2 2 3 3 2 1 3 3 3 3 3 4 4 3 3 4 5 4 4 2 1 2 1 1 1 2 2 2 3 2 2 1 1 1 1 1 5 8 5 4
3 3 3 2 2 3 2 2 3 4 4 4 3 3 3 4 4 2 3 4 4 4 6 6 6 5 5 3 0 2 2 3 2 3 1 2 1 1 1 2 6 8 7
4 4 3 3 3 3 3 2 3 3 4 3 4 4 4 3 3 1 2 3 3 3 3 5 5 4 4 4 3 2 2 2 2 2 2 1 1 1 1 1 2 5 6
Wind_Direction
142 133 132 140 154 137 145 141 131 121 123 134 142 139 136 123 131 135 138 152 169 180 186 188 189 189 191 194 197 200 200 199 200 200 202 205 209 214 218 219 215 215 214
122 160 166 174 173 166 138 144 130 134 131 116 128 123 139 140 133 160 155 157 172 185 195 202 203 201 201 201 203 208 212 211 210 211 214 215 218 223 227 226 222 222 220
161 212 177 189 176 174 164 175 152 157 164 154 136 124 148 155 144 165 182 179 176 183 191 201 205 208 208 210 210 212 217 216 216 217 219 220 222 225 230 230 229 228 225
204 230 230 198 185 199 190 191 211 196 186 180 159 192 172 158 174 189 192 194 203 188 186 194 204 211 215 218 218 217 220 222 223 224 225 227 229 230 231 232 233 232 229
194 221 244 240 215 209 214 231 184 208 192 207 208 201 219 209 200 202 199 208 200 214 198 177 193 207 215 224 227 222 221 223 224 228 232 234 236 235 235 234 234 234 234
205 232 216 225 238 224 221 220 217 219 225 217 246 216 232 218 218 215 222 205 201 214 219 201 196 198 202 215 227 229 225 222 221 224 231 236 238 239 238 236 236 237 238
222 234 259 223 245 240 237 230 225 211 214 197 229 231 208 191 194 204 224 210 176 193 221 226 229 223 192 196 213 221 222 222 220 220 224 230 233 236 236 237 237 238 239
249 230 241 252 232 232 232 232 227 245 234 214 239 256 235 185 171 178 172 178 196 146 143 168 213 243 254 192 173 196 214 220 221 220 220 222 229 232 235 237 237 238 240
258 281 266 268 260 243 230 241 235 233 241 235 234 253 262 248 180 157 142 132 110 85 100 86 87 78 259 276 141 160 193 216 224 226 226 225 223 227 231 233 233 233 236
269 271 269 261 260 259 246 250 241 247 244 247 237 245 264 280 241 206 174 148 134 96 39 48 77 112 114 105 69 62 104 185 226 243 247 235 229 227 223 226 229 232 234
254 279 276 267 266 268 266 271 272 264 254 255 255 251 243 231 237 238 226 193 175 119 101 84 62 56 65 63 62 69 83 94 111 129 132 86 133 175 205 220 226 227 227
226 271 278 274 271 285 286 276 272 265 269 268 267 261 254 248 238 239 230 216 211 172 86 48 61 65 58 64 64 71 82 86 99 103 95 78 76 81 84 89 96 111 140
280 304 291 286 294 293 285 277 266 272 267 263 264 269 265 261 255 242 227 222 218 227 141 85 73 74 68 73 77 84 85 90 92 93 90 84 78 76 74 71 70 71 70
323 334 307 294 289 290 286 276 269 263 263 267 271 281 281 272 257 242 229 218 214 222 194 134 81 74 74 75 78 89 82 89 92 93 89 85 82 80 77 74 73 74 72
279 288 296 290 285 282 287 269 281 285 278 273 273 263 270 272 265 255 241 232 230 227 223 145 119 87 94 86 87 87 83 88 95 96 94 90 87 84 81 79 78 80 81
296 285 297 288 271 264 260 266 252 305 287 309 312 323 294 289 276 251 241 235 239 233 237 105 102 106 98 102 100 99 96 96 90 94 94 92 89 88 86 82 80 81 81
262 268 279 280 278 264 222 217 260 181 185 16 354 19 349 334 306 267 249 220 213 179 167 136 114 117 119 110 109 106 105 103 96 98 95 92 91 90 88 85 85 86 87
204 184 175 145 101 55 129 178 194 121 102 67 15 13 347 340 302 285 247 179 170 170 167 149 146 141 126 122 117 117 109 105 102 105 107 101 96 92 90 90 91 92 91
173 164 149 150 128 113 125 136 141 126 120 63 358 353 338 328 300 355 213 160 168 163 156 155 151 139 136 135 131 116 108 112 114 122 121 114 109 104 101 97 95 95 94
155 151 144 160 148 139 146 144 140 138 133 109 60 30 11 347 337 343 138 142 153 145 146 154 146 145 140 150 154 147 143 137 124 122 112 121 128 131 123 115 107 102 103
148 150 159 147 143 147 113 127 152 151 147 129 104 85 70 59 44 29 38 104 143 154 152 148 149 149 150 166 179 182 165 156 142 135 142 140 144 142 142 138 121 108 109
149 151 150 140 125 91 56 24 341 139 133 128 121 115 111 100 89 75 59 56 51 103 136 155 158 156 166 181 179 187 184 176 162 158 188 149 146 134 137 123 118 121 122
141 148 151 147 127 85 70 62 349 138 126 110 106 102 92 95 105 100 98 103 80 59 46 55 143 162 166 178 189 189 187 201 174 136 185 171 165 169 148 117 129 141 144
139 142 145 141 134 110 91 115 203 153 126 112 108 107 106 106 99 101 111 104 99 91 88 117 117 124 109 144 198 199 180 178 175 138 193 249 185 195 157 139 147 162 174
146 148 135 132 135 119 109 167 230 155 137 126 120 113 119 121 82 52 123 120 114 119 105 94 79 85 82 97 178 214 186 198 195 159 169 254 209 235 203 166 160 172 185
155 151 134 135 133 120 114 158 248 169 145 144 137 134 109 107 98 49 138 133 135 128 129 133 134 150 149 150 185 243 246 238 227 177 143 230 230 242 222 187 180 181 193
Height
1563 1564 1564 1564 1565 1566 1566 1566 1567 1567 1568 1568 1569 1570 1570 1570 1571 1571 1570 1570 1570 1571 1572 1573 1573 1574 1575 1576 1576 1577 1578 1579 1579 1579 1580 1580 1581 1582 1582 1583 1583 1584 1584
1563 1563 1564 1564 1565 1566 1567 1567 1567 1567 1568 1569 1569 1569 1570 1570 1570 1570 1571 1570 1570 1571 1571 1572 1573 1573 1574 1575 1575 1576 1576 1577 1578 1578 1579 1579 1580 1580 1581 1581 1582 1582 1583
1562 1563 1564 1564 1565 1565 1566 1566 1567 1567 1568 1568 1568 1569 1569 1569 1569 1569 1570 1570 1570 1570 1570 1571 1571 1572 1573 1573 1574 1574 1575 1576 1576 1577 1577 1577 1578 1578 1579 1579 1580 1580 1581
1561 1562 1563 1563 1564 1564 1565 1565 1566 1567 1567 1568 1568 1568 1568 1568 1568 1569 1569 1569 1570 1570 1570 1570 1570 1570 1571 1572 1572 1573 1573 1574 1574 1575 1575 1576 1576 1576 1577 1577 1577 1578 1578
1560 1561 1562 1562 1563 1564 1564 1565 1565 1566 1566 1566 1567 1567 1567 1567 1567 1568 1568 1569 1569 1568 1569 1568 1568 1568 1569 1570 1570 1571 1571 1572 1572 1573 1573 1573 1574 1574 1574 1575 1575 1575 1575
1559 1560 1561 1561 1562 1563 1563 1563 1563 1564 1564 1565 1566 1566 1566 1566 1566 1567 1567 1567 1567 1567 1567 1567 1566 1567 1567 1567 1568 1569 1569 1569 1570 1570 1570 1570 1571 1571 1571 1572 1572 1572 1573
1558 1559 1560 1560 1560 1561 1561 1562 1562 1563 1563 1564 1564 1564 1565 1565 1565 1565 1565 1566 1566 1566 1566 1565 1565 1565 1565 1565 1566 1566 1567 1567 1567 1567 1567 1568 1568 1568 1568 1568 1569 1569 1570
1558 1558 1558 1559 1559 1560 1560 1560 1561 1562 1562 1563 1563 1563 1563 1564 1563 1563 1563 1564 1564 1564 1564 1563 1563 1563 1563 1564 1563 1564 1564 1564 1564 1564 1565 1565 1565 1565 1565 1565 1566 1566 1566
1557 1556 1557 1557 1558 1558 1559 1559 1559 1560 1561 1561 1561 1562 1562 1561 1562 1562 1561 1562 1562 1562 1562 1562 1561 1561 1561 1561 1561 1561 1561 1562 1562 1561 1562 1562 1562 1562 1562 1562 1563 1563 1563
1555 1555 1556 1556 1556 1557 1557 1558 1558 1558 1559 1559 1560 1559 1560 1560 1560 1560 1561 1560 1560 1560 1560 1560 1560 1559 1559 1559 1558 1559 1559 1559 1559 1559 1559 1558 1559 1559 1559 1559 1560 1560 1560
1554 1554 1555 1555 1555 1555 1556 1556 1556 1556 1557 1557 1558 1558 1558 1557 1558 1558 1559 1559 1559 1559 1558 1558 1558 1558 1558 1557 1557 1557 1557 1556 1556 1556 1556 1556 1556 1556 1556 1556 1556 1557 1556
1554 1553 1553 1553 1553 1554 1554 1554 1554 1554 1554 1554 1555 1555 1555 1555 1555 1556 1556 1556 1557 1557 1557 1556 1556 1556 1556 1556 1555 1555 1554 1554 1553 1553 1553 1554 1553 1553 1553 1554 1554 1554 1554
1553 1553 1553 1552 1552 1552 1552 1552 1552 1552 1552 1552 1552 1553 1553 1553 1553 1553 1554 1554 1554 1555 1555 1555 1555 1555 1554 1554 1553 1553 1552 1552 1551 1551 1551 1551 1551 1551 1551 1551 1552 1552 1551
1552 1552 1551 1551 1551 1550 1550 1550 1550 1550 1550 1550 1550 1550 1550 1550 1550 1551 1551 1552 1552 1553 1553 1554 1553 1553 1553 1553 1552 1551 1551 1550 1550 1549 1549 1550 1550 1550 1550 1549 1549 1549 1549
1552 1551 1550 1550 1549 1549 1548 1548 1548 1548 1548 1548 1548 1548 1548 1548 1548 1548 1549 1550 1551 1550 1551 1552 1552 1552 1552 1551 1551 1551 1550 1549 1549 1549 1549 1549 1548 1548 1548 1548 1547 1547 1547
1550 1550 1549 1549 1548 1548 1547 1547 1547 1547 1546 1546 1546 1546 1546 1546 1546 1547 1547 1547 1548 1549 1549 1550 1550 1550 1550 1550 1550 1550 1550 1549 1548 1548 1548 1547 1547 1547 1547 1546 1546 1546 1545
1549 1549 1548 1548 1547 1547 1546 1546 1546 1546 1545 1545 1545 1544 1544 1544 1545 1545 1545 1545 1545 1546 1547 1548 1548 1548 1548 1549 1549 1550 1550 1549 1548 1547 1547 1547 1546 1546 1546 1545 1545 1545 1545
1548 1548 1547 1547 1546 1546 1545 1545 1545 1545 1544 1544 1544 1543 1543 1543 1543 1543 1543 1544 1544 1544 1545 1545 1547 1547 1548 1548 1548 1549 1549 1549 1548 1547 1547 1546 1546 1546 1545 1545 1544 1544 1544
1547 1547 1546 1546 1545 1545 1545 1544 1544 1544 1543 1543 1543 1542 1542 1542 1542 1542 1542 1542 1543 1544 1544 1544 1545 1546 1547 1548 1548 1548 1549 1548 1548 1547 1547 1546 1546 1546 1545 1545 1544 1544 1543
1546 1545 1545 1545 1545 1544 1544 1543 1543 1542 1542 1542 1541 1541 1541 1541 1541 1541 1541 1541 1542 1542 1543 1543 1544 1545 1546 1546 1547 1548 1548 1548 1548 1548 1547 1546 1546 1545 1545 1545 1544 1544 1543
1545 1544 1544 1544 1544 1543 1543 1542 1542 1542 1541 1541 1540 1540 1540 1540 1540 1540 1540 1540 1541 1541 1542 1542 1543 1544 1545 1545 1546 1547 1547 1547 1547 1547 1546 1546 1546 1545 1545 1544 1544 1543 1543
1544 1543 1543 1543 1542 1542 1542 1541 1541 1541 1540 1540 1540 1540 1539 1539 1539 1539 1539 1539 1540 1541 1541 1542 1542 1542 1543 1544 1545 1545 1546 1546 1546 1546 1545 1546 1546 1545 1545 1544 1543 1543 1542
1542 1542 1542 1542 1541 1540 1540 1540 1540 1539 1539 1539 1539 1539 1539 1539 1539 1539 1539 1539 1539 1539 1540 1541 1541 1542 1542 1542 1543 1544 1544 1544 1544 1544 1544 1545 1545 1544 1544 1543 1542 1542 1541
1541 1541 1540 1540 1539 1539 1538 1538 1538 1538 1538 1538 1538 1538 1538 1538 1538 1538 1539 1539 1539 1539 1539 1540 1540 1541 1541 1541 1541 1542 1542 1542 1542 1543 1543 1544 1543 1543 1543 1542 1541 1541 1540
1539 1539 1538 1538 1538 1537 1536 1535 1536 1537 1537 1537 1537 1537 1537 1537 1537 1538 1539 1539 1539 1539 1539 1539 1539 1539 1540 1540 1540 1541 1541 1541 1541 1542 1542 1542 1542 1542 1541 1541 1540 1539 1539
1537 1537 1536 1536 1536 1535 1534 1533 1533 1536 1536 1536 1536 1536 1536 1536 1537 1537 1538 1538 1539 1539 1539 1539 1538 1539 1539 1539 1539 1539 1540 1540 1540 1541 1540 1540 1540 1540 1540 1540 1539 1538 1538